Location: Seattle
(47.6064°N, 122.3308°W)
Time: 05:56:29
(UTC-08:00)

N. Korean satellite - Pass Details

Date: 08 December 2022
Orbit: 407 x 441 km, 97.3° (Epoch: 05 February)

Event Time Altitude Azimuth Distance (km) Brightness Sun altitude
Rises 05:15:07 0° 17° (NNE) 2,510 10.3 -24.2°
Reaches altitude 10° 05:17:14 10° 23° (NNE) 1,622 9.4 -23.8°
Maximum altitude 05:20:38 49° 99° (E) 601 7.3 -23.3°
Drops below altitude 10° 05:23:56 10° 176° (S) 1,579 9.3 -22.7°
Sets 05:25:58 0° 182° (S) 2,434 10.2 -22.4°
